Year,Month,Day,Hour,Minute,Value (Times are PST for temperature in C)
2012,09,08,00,00,18.20
2012,09,08,00,01,18.20
2012,09,08,00,02,18.30
2012,09,08,00,03,18.30
2012,09,08,00,04,18.30
2012,09,08,00,05,18.30
2012,09,08,00,06,18.30
2012,09,08,00,07,18.30
2012,09,08,00,08,18.30
2012,09,08,00,09,18.30
2012,09,08,00,10,18.30
2012,09,08,00,11,18.30
2012,09,08,00,12,18.30
2012,09,08,00,13,18.30
2012,09,08,00,14,18.30
2012,09,08,00,15,18.30
2012,09,08,00,16,18.40
2012,09,08,00,17,18.40
2012,09,08,00,18,18.40
2012,09,08,00,19,18.40
2012,09,08,00,20,18.40
2012,09,08,00,21,18.50
2012,09,08,00,22,18.50
2012,09,08,00,23,18.50
2012,09,08,00,24,18.50
2012,09,08,00,25,18.50
2012,09,08,00,26,18.50
2012,09,08,00,27,18.60
2012,09,08,00,28,18.60
2012,09,08,00,29,18.60
2012,09,08,00,30,18.60
2012,09,08,00,31,18.60
2012,09,08,00,32,18.60
2012,09,08,00,33,18.60
2012,09,08,00,34,18.60
2012,09,08,00,35,18.60
2012,09,08,00,36,18.60
2012,09,08,00,37,18.60
2012,09,08,00,38,18.60
2012,09,08,00,39,18.60
2012,09,08,00,40,18.60
2012,09,08,00,41,18.60
2012,09,08,00,42,18.60
2012,09,08,00,43,18.60
2012,09,08,00,44,18.60
2012,09,08,00,45,18.60
2012,09,08,00,46,18.60
2012,09,08,00,47,18.60
2012,09,08,00,48,18.50
2012,09,08,00,49,18.50
2012,09,08,00,50,18.50
2012,09,08,00,51,18.50
2012,09,08,00,52,18.40
2012,09,08,00,53,18.40
2012,09,08,00,54,18.40
2012,09,08,00,55,18.40
2012,09,08,00,56,18.40
2012,09,08,00,57,18.30
2012,09,08,00,58,18.30
2012,09,08,00,59,18.30
2012,09,08,01,00,18.30
2012,09,08,01,01,18.30
2012,09,08,01,02,18.30
2012,09,08,01,03,18.30
2012,09,08,01,04,18.30
2012,09,08,01,05,18.20
2012,09,08,01,06,18.20
2012,09,08,01,07,18.20
2012,09,08,01,08,18.20
2012,09,08,01,09,18.20
2012,09,08,01,10,18.20
2012,09,08,01,11,18.20
2012,09,08,01,12,18.10
2012,09,08,01,13,18.10
2012,09,08,01,14,18.10
2012,09,08,01,15,18.10
2012,09,08,01,16,18.10
2012,09,08,01,17,18.00
2012,09,08,01,18,18.00
2012,09,08,01,19,18.00
2012,09,08,01,20,18.00
2012,09,08,01,21,18.00
2012,09,08,01,22,18.00
2012,09,08,01,23,18.00
2012,09,08,01,24,18.00
2012,09,08,01,25,17.90
2012,09,08,01,26,17.90
2012,09,08,01,27,17.90
2012,09,08,01,28,17.90
2012,09,08,01,29,17.90
2012,09,08,01,30,17.80
2012,09,08,01,31,17.80
2012,09,08,01,32,17.80
2012,09,08,01,33,17.80
2012,09,08,01,34,17.80
2012,09,08,01,35,17.80
2012,09,08,01,36,17.70
2012,09,08,01,37,17.70
2012,09,08,01,38,17.70
2012,09,08,01,39,17.70
2012,09,08,01,40,17.70
2012,09,08,01,41,17.70
2012,09,08,01,42,17.70
2012,09,08,01,43,17.70
2012,09,08,01,44,17.70
2012,09,08,01,45,17.70
2012,09,08,01,46,17.70
2012,09,08,01,47,17.70
2012,09,08,01,48,17.70
2012,09,08,01,49,17.70
2012,09,08,01,50,17.70
2012,09,08,01,51,17.70
2012,09,08,01,52,17.60
2012,09,08,01,53,17.60
2012,09,08,01,54,17.60
2012,09,08,01,55,17.60
2012,09,08,01,56,17.60
2012,09,08,01,57,17.60
2012,09,08,01,58,17.60
2012,09,08,01,59,17.60
2012,09,08,02,00,17.50
2012,09,08,02,01,17.50
2012,09,08,02,02,17.50
2012,09,08,02,03,17.50
2012,09,08,02,04,17.50
2012,09,08,02,05,17.50
2012,09,08,02,06,17.50
2012,09,08,02,07,17.50
2012,09,08,02,08,17.50
2012,09,08,02,09,17.50
2012,09,08,02,10,17.50
2012,09,08,02,11,17.50
2012,09,08,02,12,17.50
2012,09,08,02,13,17.50
2012,09,08,02,14,17.50
2012,09,08,02,15,17.50
2012,09,08,02,16,17.50
2012,09,08,02,17,17.50
2012,09,08,02,18,17.50
2012,09,08,02,19,17.50
2012,09,08,02,20,17.50
2012,09,08,02,21,17.50
2012,09,08,02,22,17.50
2012,09,08,02,23,17.50
2012,09,08,02,24,17.40
2012,09,08,02,25,17.40
2012,09,08,02,26,17.40
2012,09,08,02,27,17.40
2012,09,08,02,28,17.40
2012,09,08,02,29,17.40
2012,09,08,02,30,17.40
2012,09,08,02,31,17.30
2012,09,08,02,32,17.30
2012,09,08,02,33,17.30
2012,09,08,02,34,17.30
2012,09,08,02,35,17.30
2012,09,08,02,36,17.30
2012,09,08,02,37,17.40
2012,09,08,02,38,17.40
2012,09,08,02,39,17.40
2012,09,08,02,40,17.40
2012,09,08,02,41,17.50
2012,09,08,02,42,17.50
2012,09,08,02,43,17.50
2012,09,08,02,44,17.60
2012,09,08,02,45,17.60
2012,09,08,02,46,17.50
2012,09,08,02,47,17.50
2012,09,08,02,48,17.50
2012,09,08,02,49,17.50
2012,09,08,02,50,17.40
2012,09,08,02,51,17.40
2012,09,08,02,52,17.30
2012,09,08,02,53,17.30
2012,09,08,02,54,17.30
2012,09,08,02,55,17.30
2012,09,08,02,56,17.30
2012,09,08,02,57,17.30
2012,09,08,02,58,17.30
2012,09,08,02,59,17.30
2012,09,08,03,00,17.30
2012,09,08,03,01,17.30
2012,09,08,03,02,17.30
2012,09,08,03,03,17.30
2012,09,08,03,04,17.30
2012,09,08,03,05,17.30
2012,09,08,03,06,17.30
2012,09,08,03,07,17.30
2012,09,08,03,08,17.30
2012,09,08,03,09,17.30
2012,09,08,03,10,17.30
2012,09,08,03,11,17.30
2012,09,08,03,12,17.30
2012,09,08,03,13,17.30
2012,09,08,03,14,17.30
2012,09,08,03,15,17.30
2012,09,08,03,16,17.30
2012,09,08,03,17,17.30
2012,09,08,03,18,17.30
2012,09,08,03,19,17.30
2012,09,08,03,20,17.40
2012,09,08,03,21,17.40
2012,09,08,03,22,17.40
2012,09,08,03,23,17.40
2012,09,08,03,24,17.40
2012,09,08,03,25,17.40
2012,09,08,03,26,17.40
2012,09,08,03,27,17.40
2012,09,08,03,28,17.40
2012,09,08,03,29,17.40
2012,09,08,03,30,17.40
2012,09,08,03,31,17.40
2012,09,08,03,32,17.40
2012,09,08,03,33,17.40
2012,09,08,03,34,17.40
2012,09,08,03,35,17.40
2012,09,08,03,36,17.40
2012,09,08,03,37,17.40
2012,09,08,03,38,17.40
2012,09,08,03,39,17.50
2012,09,08,03,40,17.40
2012,09,08,03,41,17.40
2012,09,08,03,42,17.40
2012,09,08,03,43,17.40
2012,09,08,03,44,17.40
2012,09,08,03,45,17.40
2012,09,08,03,46,17.40
2012,09,08,03,47,17.50
2012,09,08,03,48,17.50
2012,09,08,03,49,17.50
2012,09,08,03,50,17.50
2012,09,08,03,51,17.50
2012,09,08,03,52,17.50
2012,09,08,03,53,17.50
2012,09,08,03,54,17.50
2012,09,08,03,55,17.50
2012,09,08,03,56,17.50
2012,09,08,03,57,17.50
2012,09,08,03,58,17.50
2012,09,08,03,59,17.50
2012,09,08,04,00,17.50
2012,09,08,04,01,17.50
2012,09,08,04,02,17.50
2012,09,08,04,03,17.50
2012,09,08,04,04,17.50
2012,09,08,04,05,17.50
2012,09,08,04,06,17.50
2012,09,08,04,07,17.50
2012,09,08,04,08,17.50
2012,09,08,04,09,17.50
2012,09,08,04,10,17.50
2012,09,08,04,11,17.50
2012,09,08,04,12,17.50
2012,09,08,04,13,17.50
2012,09,08,04,14,17.50
2012,09,08,04,15,17.50
2012,09,08,04,16,17.50
2012,09,08,04,17,17.50
2012,09,08,04,18,17.40
2012,09,08,04,19,17.40
2012,09,08,04,20,17.40
2012,09,08,04,21,17.30
2012,09,08,04,22,17.30
2012,09,08,04,23,17.30
2012,09,08,04,24,17.20
2012,09,08,04,25,17.10
2012,09,08,04,26,17.10
2012,09,08,04,27,17.00
2012,09,08,04,28,16.90
2012,09,08,04,29,16.90
2012,09,08,04,30,16.90
2012,09,08,04,31,16.80
2012,09,08,04,32,16.80
2012,09,08,04,33,16.80
2012,09,08,04,34,16.80
2012,09,08,04,35,16.80
2012,09,08,04,36,16.80
2012,09,08,04,37,16.80
2012,09,08,04,38,16.90
2012,09,08,04,39,16.90
2012,09,08,04,40,16.90
2012,09,08,04,41,16.90
2012,09,08,04,42,16.90
2012,09,08,04,43,16.90
2012,09,08,04,44,17.00
2012,09,08,04,45,17.00
2012,09,08,04,46,17.00
2012,09,08,04,47,17.00
2012,09,08,04,48,17.00
2012,09,08,04,49,17.00
2012,09,08,04,50,17.10
2012,09,08,04,51,17.10
2012,09,08,04,52,17.10
2012,09,08,04,53,17.10
2012,09,08,04,54,17.10
2012,09,08,04,55,17.10
2012,09,08,04,56,17.10
2012,09,08,04,57,17.10
2012,09,08,04,58,17.10
2012,09,08,04,59,17.20
2012,09,08,05,00,17.20
2012,09,08,05,01,17.20
2012,09,08,05,02,17.20
2012,09,08,05,03,17.20
2012,09,08,05,04,17.20
2012,09,08,05,05,17.20
2012,09,08,05,06,17.30
2012,09,08,05,07,17.30
2012,09,08,05,08,17.30
2012,09,08,05,09,17.30
2012,09,08,05,10,17.30
2012,09,08,05,11,17.30
2012,09,08,05,12,17.30
2012,09,08,05,13,17.30
2012,09,08,05,14,17.20
2012,09,08,05,15,17.20
2012,09,08,05,16,17.20
2012,09,08,05,17,17.20
2012,09,08,05,18,17.20
2012,09,08,05,19,17.20
2012,09,08,05,20,17.20
2012,09,08,05,21,17.10
2012,09,08,05,22,17.10
2012,09,08,05,23,17.10
2012,09,08,05,24,17.10
2012,09,08,05,25,17.10
2012,09,08,05,26,17.10
2012,09,08,05,27,17.00
2012,09,08,05,28,17.00
2012,09,08,05,29,17.00
2012,09,08,05,30,16.90
2012,09,08,05,31,16.90
2012,09,08,05,32,16.90
2012,09,08,05,33,16.80
2012,09,08,05,34,16.80
2012,09,08,05,35,16.80
2012,09,08,05,36,16.80
2012,09,08,05,37,16.70
2012,09,08,05,38,16.70
2012,09,08,05,39,16.70
2012,09,08,05,40,16.70
2012,09,08,05,41,16.70
2012,09,08,05,42,16.70
2012,09,08,05,43,16.70
2012,09,08,05,44,16.70
2012,09,08,05,45,16.70
2012,09,08,05,46,16.70
2012,09,08,05,47,16.70
2012,09,08,05,48,16.70
2012,09,08,05,49,16.70
2012,09,08,05,50,16.70
2012,09,08,05,51,16.70
2012,09,08,05,52,16.60
2012,09,08,05,53,16.60
2012,09,08,05,54,16.60
2012,09,08,05,55,16.60
2012,09,08,05,56,16.60
2012,09,08,05,57,16.50
2012,09,08,05,58,16.50
2012,09,08,05,59,16.50
2012,09,08,06,00,16.40
2012,09,08,06,01,16.40
2012,09,08,06,02,16.30
2012,09,08,06,03,16.30
2012,09,08,06,04,16.30
2012,09,08,06,05,16.30
2012,09,08,06,06,16.30
2012,09,08,06,07,16.30
2012,09,08,06,08,16.30
2012,09,08,06,09,16.30
2012,09,08,06,10,16.30
2012,09,08,06,11,16.30
2012,09,08,06,12,16.40
2012,09,08,06,13,16.40
2012,09,08,06,14,16.40
2012,09,08,06,15,16.40
2012,09,08,06,16,16.50
2012,09,08,06,17,16.50
2012,09,08,06,18,16.50
2012,09,08,06,19,16.50
2012,09,08,06,20,16.50
2012,09,08,06,21,16.50
2012,09,08,06,22,16.50
2012,09,08,06,23,16.50
2012,09,08,06,24,16.50
2012,09,08,06,25,16.60
2012,09,08,06,26,16.60
2012,09,08,06,27,16.60
2012,09,08,06,28,16.60
2012,09,08,06,29,16.60
2012,09,08,06,30,16.60
2012,09,08,06,31,16.60
2012,09,08,06,32,16.60
2012,09,08,06,33,16.60
2012,09,08,06,34,16.70
2012,09,08,06,35,16.70
2012,09,08,06,36,16.70
2012,09,08,06,37,16.70
2012,09,08,06,38,16.70
2012,09,08,06,39,16.70
2012,09,08,06,40,16.80
2012,09,08,06,41,16.80
2012,09,08,06,42,16.80
2012,09,08,06,43,16.80
2012,09,08,06,44,16.80
2012,09,08,06,45,16.80
2012,09,08,06,46,16.80
2012,09,08,06,47,16.80
2012,09,08,06,48,16.80
2012,09,08,06,49,16.80
2012,09,08,06,50,16.80
2012,09,08,06,51,16.90
2012,09,08,06,52,16.90
2012,09,08,06,53,16.90
2012,09,08,06,54,16.90
2012,09,08,06,55,16.90
2012,09,08,06,56,17.00
2012,09,08,06,57,17.00
2012,09,08,06,58,17.00
2012,09,08,06,59,17.10
2012,09,08,07,00,17.10
2012,09,08,07,01,17.10
2012,09,08,07,02,17.10
2012,09,08,07,03,17.10
2012,09,08,07,04,17.10
2012,09,08,07,05,17.10
2012,09,08,07,06,17.10
2012,09,08,07,07,17.10
2012,09,08,07,08,17.10
2012,09,08,07,09,17.10
2012,09,08,07,10,17.10
2012,09,08,07,11,17.10
2012,09,08,07,12,17.10
2012,09,08,07,13,17.10
2012,09,08,07,14,17.10
2012,09,08,07,15,17.10
2012,09,08,07,16,17.10
2012,09,08,07,17,17.10
2012,09,08,07,18,17.10
2012,09,08,07,19,17.10
2012,09,08,07,20,17.10
2012,09,08,07,21,17.00
2012,09,08,07,22,17.00
2012,09,08,07,23,17.00
2012,09,08,07,24,17.00
2012,09,08,07,25,17.00
2012,09,08,07,26,17.00
2012,09,08,07,27,17.00
2012,09,08,07,28,17.10
2012,09,08,07,29,17.10
2012,09,08,07,30,17.10
2012,09,08,07,31,17.10
2012,09,08,07,32,17.10
2012,09,08,07,33,17.20
2012,09,08,07,34,17.20
2012,09,08,07,35,17.20
2012,09,08,07,36,17.20
2012,09,08,07,37,17.30
2012,09,08,07,38,17.30
2012,09,08,07,39,17.30
2012,09,08,07,40,17.30
2012,09,08,07,41,17.30
2012,09,08,07,42,17.30
2012,09,08,07,43,17.30
2012,09,08,07,44,17.30
2012,09,08,07,45,17.30
2012,09,08,07,46,17.30
2012,09,08,07,47,17.30
2012,09,08,07,48,17.30
2012,09,08,07,49,17.30
2012,09,08,07,50,17.30
2012,09,08,07,51,17.40
2012,09,08,07,52,17.40
2012,09,08,07,53,17.40
2012,09,08,07,54,17.40
2012,09,08,07,55,17.40
2012,09,08,07,56,17.50
2012,09,08,07,57,17.50
2012,09,08,07,58,17.60
2012,09,08,07,59,17.60
2012,09,08,08,00,17.70
2012,09,08,08,01,17.70
2012,09,08,08,02,17.80
2012,09,08,08,03,17.80
2012,09,08,08,04,17.90
2012,09,08,08,05,17.90
2012,09,08,08,06,18.00
2012,09,08,08,07,18.10
2012,09,08,08,08,18.20
2012,09,08,08,09,18.30
2012,09,08,08,10,18.30
2012,09,08,08,11,18.40
2012,09,08,08,12,18.50
2012,09,08,08,13,18.50
2012,09,08,08,14,18.60
2012,09,08,08,15,18.60
2012,09,08,08,16,18.70
2012,09,08,08,17,18.70
2012,09,08,08,18,18.80
2012,09,08,08,19,18.80
2012,09,08,08,20,18.80
2012,09,08,08,21,18.90
2012,09,08,08,22,18.90
2012,09,08,08,23,19.00
2012,09,08,08,24,19.00
2012,09,08,08,25,19.10
2012,09,08,08,26,19.10
2012,09,08,08,27,19.20
2012,09,08,08,28,19.20
2012,09,08,08,29,19.20
2012,09,08,08,30,19.30
2012,09,08,08,31,19.30
2012,09,08,08,32,19.30
2012,09,08,08,33,19.40
2012,09,08,08,34,19.40
2012,09,08,08,35,19.40
2012,09,08,08,36,19.50
2012,09,08,08,37,19.60
2012,09,08,08,38,19.60
2012,09,08,08,39,19.70
2012,09,08,08,40,19.80
2012,09,08,08,41,19.90
2012,09,08,08,42,19.90
2012,09,08,08,43,20.00
2012,09,08,08,44,20.10
2012,09,08,08,45,20.10
2012,09,08,08,46,20.20
2012,09,08,08,47,20.30
2012,09,08,08,48,20.30
2012,09,08,08,49,20.40
2012,09,08,08,50,20.40
2012,09,08,08,51,20.40
2012,09,08,08,52,20.40
2012,09,08,08,53,20.40
2012,09,08,08,54,20.40
2012,09,08,08,55,20.40
2012,09,08,08,56,20.40
2012,09,08,08,57,20.40
2012,09,08,08,58,20.30
2012,09,08,08,59,20.30
2012,09,08,09,00,20.20
2012,09,08,09,01,20.10
2012,09,08,09,02,20.00
2012,09,08,09,03,19.90
2012,09,08,09,04,19.80
2012,09,08,09,05,19.70
2012,09,08,09,06,19.60
2012,09,08,09,07,19.50
2012,09,08,09,08,19.40
2012,09,08,09,09,19.40
2012,09,08,09,10,19.40
2012,09,08,09,11,19.40
2012,09,08,09,12,19.30
2012,09,08,09,13,19.30
2012,09,08,09,14,19.30
2012,09,08,09,15,19.30
2012,09,08,09,16,19.20
2012,09,08,09,17,19.20
2012,09,08,09,18,19.20
2012,09,08,09,19,19.20
2012,09,08,09,20,19.20
2012,09,08,09,21,19.20
2012,09,08,09,22,19.30
2012,09,08,09,23,19.30
2012,09,08,09,24,19.40
2012,09,08,09,25,19.40
2012,09,08,09,26,19.40
2012,09,08,09,27,19.40
2012,09,08,09,28,19.50
2012,09,08,09,29,19.60
2012,09,08,09,30,19.60
2012,09,08,09,31,19.60
2012,09,08,09,32,19.70
2012,09,08,09,33,19.70
2012,09,08,09,34,19.80
2012,09,08,09,35,19.80
2012,09,08,09,36,19.80
2012,09,08,09,37,19.80
2012,09,08,09,38,19.80
2012,09,08,09,39,19.80
2012,09,08,09,40,19.80
2012,09,08,09,41,19.80
2012,09,08,09,42,19.80
2012,09,08,09,43,19.70
2012,09,08,09,44,19.70
2012,09,08,09,45,19.80
2012,09,08,09,46,19.80
2012,09,08,09,47,19.80
2012,09,08,09,48,19.80
2012,09,08,09,49,19.80
2012,09,08,09,50,19.80
2012,09,08,09,51,19.90
2012,09,08,09,52,19.90
2012,09,08,09,53,19.90
2012,09,08,09,54,19.90
2012,09,08,09,55,19.90
2012,09,08,09,56,19.90
2012,09,08,09,57,19.90
2012,09,08,09,58,20.00
2012,09,08,09,59,20.00
2012,09,08,10,00,20.10
2012,09,08,10,01,20.20
2012,09,08,10,02,20.30
2012,09,08,10,03,20.40
2012,09,08,10,04,20.50
2012,09,08,10,05,20.60
2012,09,08,10,06,20.70
2012,09,08,10,07,20.80
2012,09,08,10,08,20.80
2012,09,08,10,09,20.80
2012,09,08,10,10,20.80
2012,09,08,10,11,20.80
2012,09,08,10,12,20.80
2012,09,08,10,13,20.80
2012,09,08,10,14,20.80
2012,09,08,10,15,20.80
2012,09,08,10,16,20.80
2012,09,08,10,17,20.70
2012,09,08,10,18,20.70
2012,09,08,10,19,20.70
2012,09,08,10,20,20.70
2012,09,08,10,21,20.70
2012,09,08,10,22,20.70
2012,09,08,10,23,20.80
2012,09,08,10,24,20.80
2012,09,08,10,25,20.80
2012,09,08,10,26,20.70
2012,09,08,10,27,20.70
2012,09,08,10,28,20.70
2012,09,08,10,29,20.70
2012,09,08,10,30,20.70
2012,09,08,10,31,20.70
2012,09,08,10,32,20.70
2012,09,08,10,33,20.60
2012,09,08,10,34,20.60
2012,09,08,10,35,20.60
2012,09,08,10,36,20.60
2012,09,08,10,37,20.60
2012,09,08,10,38,20.50
2012,09,08,10,39,20.50
2012,09,08,10,40,20.40
2012,09,08,10,41,20.40
2012,09,08,10,42,20.40
2012,09,08,10,43,20.40
2012,09,08,10,44,20.40
2012,09,08,10,45,20.40
2012,09,08,10,46,20.40
2012,09,08,10,47,20.50
2012,09,08,10,48,20.50
2012,09,08,10,49,20.60
2012,09,08,10,50,20.60
2012,09,08,10,51,20.60
2012,09,08,10,52,20.70
2012,09,08,10,53,20.70
2012,09,08,10,54,20.80
2012,09,08,10,55,20.80
2012,09,08,10,56,20.80
2012,09,08,10,57,20.80
2012,09,08,10,58,20.90
2012,09,08,10,59,20.90
2012,09,08,11,00,20.90
2012,09,08,11,01,20.90
2012,09,08,11,02,20.90
2012,09,08,11,03,20.80
2012,09,08,11,04,20.80
2012,09,08,11,05,20.80
2012,09,08,11,06,20.80
2012,09,08,11,07,20.80
2012,09,08,11,08,20.90
2012,09,08,11,09,20.90
2012,09,08,11,10,20.90
2012,09,08,11,11,20.90
2012,09,08,11,12,20.90
2012,09,08,11,13,21.00
2012,09,08,11,14,21.00
2012,09,08,11,15,21.10
2012,09,08,11,16,21.10
2012,09,08,11,17,21.10
2012,09,08,11,18,21.20
2012,09,08,11,19,21.20
2012,09,08,11,20,21.30
2012,09,08,11,21,21.30
2012,09,08,11,22,21.30
2012,09,08,11,23,21.30
2012,09,08,11,24,21.20
2012,09,08,11,25,21.30
2012,09,08,11,26,21.40
2012,09,08,11,27,21.40
2012,09,08,11,28,21.50
2012,09,08,11,29,21.60
2012,09,08,11,30,21.60
2012,09,08,11,31,21.60
2012,09,08,11,32,21.60
2012,09,08,11,33,21.60
2012,09,08,11,34,21.50
2012,09,08,11,35,21.50
2012,09,08,11,36,21.50
2012,09,08,11,37,21.60
2012,09,08,11,38,21.60
2012,09,08,11,39,21.60
2012,09,08,11,40,21.50
2012,09,08,11,41,21.50
2012,09,08,11,42,21.60
2012,09,08,11,43,21.60
2012,09,08,11,44,21.60
2012,09,08,11,45,21.60
2012,09,08,11,46,21.60
2012,09,08,11,47,21.70
2012,09,08,11,48,21.70
2012,09,08,11,49,21.70
2012,09,08,11,50,21.80
2012,09,08,11,51,21.80
2012,09,08,11,52,21.80
2012,09,08,11,53,21.80
2012,09,08,11,54,21.80
2012,09,08,11,55,21.80
2012,09,08,11,56,21.90
2012,09,08,11,57,21.90
2012,09,08,11,58,21.90
2012,09,08,11,59,22.00
2012,09,08,12,00,22.00
2012,09,08,12,01,22.00
2012,09,08,12,02,22.10
2012,09,08,12,03,22.10
2012,09,08,12,04,22.20
2012,09,08,12,05,22.30
2012,09,08,12,06,22.40
2012,09,08,12,07,22.40
2012,09,08,12,08,22.30
2012,09,08,12,09,22.30
2012,09,08,12,10,22.30
2012,09,08,12,11,22.30
2012,09,08,12,12,22.20
2012,09,08,12,13,22.20
2012,09,08,12,14,22.20
2012,09,08,12,15,22.20
2012,09,08,12,16,22.30
2012,09,08,12,17,22.30
2012,09,08,12,18,22.30
2012,09,08,12,19,22.30
2012,09,08,12,20,22.30
2012,09,08,12,21,22.30
2012,09,08,12,22,22.40
2012,09,08,12,23,22.40
2012,09,08,12,24,22.40
2012,09,08,12,25,22.40
2012,09,08,12,26,22.40
2012,09,08,12,27,22.40
2012,09,08,12,28,22.40
2012,09,08,12,29,22.40
2012,09,08,12,30,22.50
2012,09,08,12,31,22.40
2012,09,08,12,32,22.40
2012,09,08,12,33,22.40
2012,09,08,12,34,22.30
2012,09,08,12,35,22.20
2012,09,08,12,36,22.10
2012,09,08,12,37,22.00
2012,09,08,12,38,21.90
2012,09,08,12,39,21.90
2012,09,08,12,40,21.80
2012,09,08,12,41,21.80
2012,09,08,12,42,21.70
2012,09,08,12,43,21.70
2012,09,08,12,44,21.60
2012,09,08,12,45,21.50
2012,09,08,12,46,21.50
2012,09,08,12,47,21.40
2012,09,08,12,48,21.40
2012,09,08,12,49,21.40
2012,09,08,12,50,21.40
2012,09,08,12,51,21.50
2012,09,08,12,52,21.60
2012,09,08,12,53,21.60
2012,09,08,12,54,21.70
2012,09,08,12,55,21.70
2012,09,08,12,56,21.80
2012,09,08,12,57,21.70
2012,09,08,12,58,21.70
2012,09,08,12,59,21.80
2012,09,08,13,00,21.80
2012,09,08,13,01,21.80
2012,09,08,13,02,21.80
2012,09,08,13,03,21.80
2012,09,08,13,04,21.80
2012,09,08,13,05,21.70
2012,09,08,13,06,21.70
2012,09,08,13,07,21.70
2012,09,08,13,08,21.60
2012,09,08,13,09,21.60
2012,09,08,13,10,21.60
2012,09,08,13,11,21.50
2012,09,08,13,12,21.50
2012,09,08,13,13,21.50
2012,09,08,13,14,21.50
2012,09,08,13,15,21.50
2012,09,08,13,16,21.50
2012,09,08,13,17,21.50
2012,09,08,13,18,21.50
2012,09,08,13,19,21.60
2012,09,08,13,20,21.70
2012,09,08,13,21,21.90
2012,09,08,13,22,21.90
2012,09,08,13,23,22.00
2012,09,08,13,24,22.00
2012,09,08,13,25,22.00
2012,09,08,13,26,22.00
2012,09,08,13,27,21.90
2012,09,08,13,28,22.00
2012,09,08,13,29,22.00
2012,09,08,13,30,22.00
2012,09,08,13,31,22.10
2012,09,08,13,32,22.10
2012,09,08,13,33,22.10
2012,09,08,13,34,22.00
2012,09,08,13,35,22.00
2012,09,08,13,36,21.90
2012,09,08,13,37,21.90
2012,09,08,13,38,21.90
2012,09,08,13,39,21.90
2012,09,08,13,40,21.90
2012,09,08,13,41,22.00
2012,09,08,13,42,22.00
2012,09,08,13,43,22.10
2012,09,08,13,44,22.10
2012,09,08,13,45,22.10
2012,09,08,13,46,22.20
2012,09,08,13,47,22.10
2012,09,08,13,48,22.00
2012,09,08,13,49,21.90
2012,09,08,13,50,21.80
2012,09,08,13,51,21.80
2012,09,08,13,52,21.80
2012,09,08,13,53,21.80
2012,09,08,13,54,21.70
2012,09,08,13,55,21.80
2012,09,08,13,56,21.80
2012,09,08,13,57,21.80
2012,09,08,13,58,21.80
2012,09,08,13,59,21.80
2012,09,08,14,00,21.80
2012,09,08,14,01,21.90
2012,09,08,14,02,21.90
2012,09,08,14,03,22.00
2012,09,08,14,04,22.10
2012,09,08,14,05,22.10
2012,09,08,14,06,22.20
2012,09,08,14,07,22.30
2012,09,08,14,08,22.40
2012,09,08,14,09,22.50
2012,09,08,14,10,22.60
2012,09,08,14,11,22.60
2012,09,08,14,12,22.70
2012,09,08,14,13,22.70
2012,09,08,14,14,22.70
2012,09,08,14,15,22.60
2012,09,08,14,16,22.60
2012,09,08,14,17,22.50
2012,09,08,14,18,22.50
2012,09,08,14,19,22.30
2012,09,08,14,20,22.20
2012,09,08,14,21,22.00
2012,09,08,14,22,21.90
2012,09,08,14,23,21.90
2012,09,08,14,24,21.90
2012,09,08,14,25,21.80
2012,09,08,14,26,21.80
2012,09,08,14,27,21.80
2012,09,08,14,28,21.70
2012,09,08,14,29,21.60
2012,09,08,14,30,21.60
2012,09,08,14,31,21.50
2012,09,08,14,32,21.50
2012,09,08,14,33,21.40
2012,09,08,14,34,21.40
2012,09,08,14,35,21.50
2012,09,08,14,36,21.50
2012,09,08,14,37,21.60
2012,09,08,14,38,21.70
2012,09,08,14,39,21.80
2012,09,08,14,40,21.80
2012,09,08,14,41,21.80
2012,09,08,14,42,21.80
2012,09,08,14,43,21.90
2012,09,08,14,44,21.90
2012,09,08,14,45,21.90
2012,09,08,14,46,21.90
2012,09,08,14,47,21.80
2012,09,08,14,48,21.80
2012,09,08,14,49,21.80
2012,09,08,14,50,21.80
2012,09,08,14,51,21.90
2012,09,08,14,52,21.90
2012,09,08,14,53,21.90
2012,09,08,14,54,21.90
2012,09,08,14,55,21.90
2012,09,08,14,56,22.00
2012,09,08,14,57,22.10
2012,09,08,14,58,22.10
2012,09,08,14,59,22.10
2012,09,08,15,00,22.20
2012,09,08,15,01,22.10
2012,09,08,15,02,22.10
2012,09,08,15,03,22.10
2012,09,08,15,04,22.00
2012,09,08,15,05,22.00
2012,09,08,15,06,21.90
2012,09,08,15,07,21.90
2012,09,08,15,08,21.90
2012,09,08,15,09,21.90
2012,09,08,15,10,22.00
2012,09,08,15,11,22.10
2012,09,08,15,12,22.10
2012,09,08,15,13,22.20
2012,09,08,15,14,22.20
2012,09,08,15,15,22.20
2012,09,08,15,16,22.30
2012,09,08,15,17,22.30
2012,09,08,15,18,22.40
2012,09,08,15,19,22.50
2012,09,08,15,20,22.60
2012,09,08,15,21,22.60
2012,09,08,15,22,22.60
2012,09,08,15,23,22.70
2012,09,08,15,24,22.70
2012,09,08,15,25,22.70
2012,09,08,15,26,22.70
2012,09,08,15,27,22.70
2012,09,08,15,28,22.70
2012,09,08,15,29,22.70
2012,09,08,15,30,22.70
2012,09,08,15,31,22.60
2012,09,08,15,32,22.60
2012,09,08,15,33,22.50
2012,09,08,15,34,22.50
2012,09,08,15,35,22.40
2012,09,08,15,36,22.40
2012,09,08,15,37,22.30
2012,09,08,15,38,22.20
2012,09,08,15,39,22.20
2012,09,08,15,40,22.10
2012,09,08,15,41,22.10
2012,09,08,15,42,22.00
2012,09,08,15,43,22.00
2012,09,08,15,44,22.10
2012,09,08,15,45,22.10
2012,09,08,15,46,22.10
2012,09,08,15,47,22.20
2012,09,08,15,48,22.20
2012,09,08,15,49,22.30
2012,09,08,15,50,22.30
2012,09,08,15,51,22.30
2012,09,08,15,52,22.30
2012,09,08,15,53,22.30
2012,09,08,15,54,22.30
2012,09,08,15,55,22.20
2012,09,08,15,56,22.20
2012,09,08,15,57,22.10
2012,09,08,15,58,22.10
2012,09,08,15,59,22.20
2012,09,08,16,00,22.20
2012,09,08,16,01,22.20
2012,09,08,16,02,22.20
2012,09,08,16,03,22.20
2012,09,08,16,04,22.20
2012,09,08,16,05,22.10
2012,09,08,16,06,22.10
2012,09,08,16,07,22.20
2012,09,08,16,08,22.20
2012,09,08,16,09,22.20
2012,09,08,16,10,22.20
2012,09,08,16,11,22.20
2012,09,08,16,12,22.20
2012,09,08,16,13,22.20
2012,09,08,16,14,22.10
2012,09,08,16,15,22.00
2012,09,08,16,16,22.00
2012,09,08,16,17,21.80
2012,09,08,16,18,21.70
2012,09,08,16,19,21.60
2012,09,08,16,20,21.60
2012,09,08,16,21,21.50
2012,09,08,16,22,21.40
2012,09,08,16,23,21.40
2012,09,08,16,24,21.40
2012,09,08,16,25,21.30
2012,09,08,16,26,21.30
2012,09,08,16,27,21.20
2012,09,08,16,28,21.20
2012,09,08,16,29,21.20
2012,09,08,16,30,21.10
2012,09,08,16,31,21.10
2012,09,08,16,32,21.10
2012,09,08,16,33,21.20
2012,09,08,16,34,21.20
2012,09,08,16,35,21.20
2012,09,08,16,36,21.20
2012,09,08,16,37,21.20
2012,09,08,16,38,21.20
2012,09,08,16,39,21.30
2012,09,08,16,40,21.30
2012,09,08,16,41,21.30
2012,09,08,16,42,21.30
2012,09,08,16,43,21.30
2012,09,08,16,44,21.30
2012,09,08,16,45,21.30
2012,09,08,16,46,21.30
2012,09,08,16,47,21.30
2012,09,08,16,48,21.30
2012,09,08,16,49,21.30
2012,09,08,16,50,21.20
2012,09,08,16,51,21.20
2012,09,08,16,52,21.10
2012,09,08,16,53,21.10
2012,09,08,16,54,21.10
2012,09,08,16,55,21.10
2012,09,08,16,56,21.10
2012,09,08,16,57,21.10
2012,09,08,16,58,21.10
2012,09,08,16,59,21.10
2012,09,08,17,00,21.20
2012,09,08,17,01,21.30
2012,09,08,17,02,21.40
2012,09,08,17,03,21.50
2012,09,08,17,04,21.50
2012,09,08,17,05,21.60
2012,09,08,17,06,21.70
2012,09,08,17,07,21.70
2012,09,08,17,08,21.70
2012,09,08,17,09,21.80
2012,09,08,17,10,21.80
2012,09,08,17,11,21.80
2012,09,08,17,12,21.90
2012,09,08,17,13,22.00
2012,09,08,17,14,22.20
2012,09,08,17,15,22.30
2012,09,08,17,16,22.40
2012,09,08,17,17,22.50
2012,09,08,17,18,22.70
2012,09,08,17,19,22.80